Location: Campillo
(40.8621°N, 4.2488°W)
Time: 13:13:21
(UTC+00:00)

Cosmos 2154 Rocket - Pass Details

Date: 04 October 2021
Orbit: 965 x 997 km, 82.9° (Epoch: 15 October)

Event Time Altitude Azimuth Distance (km) Brightness Sun altitude
Rises 04:22:14 0° 3° (N) 3,693 7.2 -22.3°
Reaches altitude 10° 04:25:14 10° 16° (NNE) 2,735 6.7 -21.8°
Maximum altitude 04:30:23 26° 72° (ENE) 1,801 6.2 -20.8°
Drops below altitude 10° 04:35:29 10° 127° (SE) 2,706 6.9 -19.9°
Sets 04:38:25 0° 140° (SE) 3,645 7.4 -19.3°
